This is the latest recevied weather packets stored in our database for station/object KC3VCX. If no packets are shown the sender has not sent any weather packets the latest 10 day(s).
| Time | Temp. | Humidity | Pressure | Rain* | Wind** | Luminosity | Snow |
|---|---|---|---|---|---|---|---|
| 1777920708 | 22.22° C | 46% | 1010.4 hPa | 0 mm | - | 736 W/m² | - |
| 1777920404 | 21.67° C | 48% | 1010.4 hPa | 0 mm | - | 864 W/m² | - |
| 1777920099 | 22.22° C | 47% | 1010.5 hPa | 0 mm | - | 818 W/m² | - |
| 1777919796 | 21.67° C | 46% | 1010.3 hPa | 0 mm | - | 790 W/m² | - |
| 1777919494 | 21.67° C | 46% | 1010.5 hPa | 0 mm | - | 827 W/m² | - |
| 1777919191 | 21.11° C | 47% | 1010.6 hPa | 0 mm | - | 811 W/m² | - |
| 1777918888 | 21.11° C | 48% | 1010.6 hPa | 0 mm | - | 825 W/m² | - |
| 1777918586 | 21.67° C | 47% | 1010.8 hPa | 0 mm | - | 859 W/m² | - |
| 1777918283 | 21.67° C | 45% | 1010.6 hPa | 0 mm | - | 230 W/m² | - |
| 1777917982 | 21.67° C | 45% | 1010.8 hPa | 0 mm | - | 801 W/m² | - |
| 1777917681 | 21.11° C | 45% | 1011 hPa | 0 mm | - | 823 W/m² | - |
| 1777917377 | 21.11° C | 47% | 1011 hPa | 0 mm | - | 845 W/m² | - |
| 1777917074 | 21.11° C | 47% | 1010.9 hPa | 0 mm | - | 815 W/m² | - |
| 1777916772 | 21.11° C | 47% | 1011.1 hPa | 0 mm | - | 863 W/m² | - |
| 1777916468 | 21.67° C | 45% | 1011.2 hPa | 0 mm | - | 848 W/m² | - |
| 1777916165 | 20.56° C | 49% | 1011 hPa | 0 mm | - | 829 W/m² | - |
| 1777915863 | 20.56° C | 46% | 1011.3 hPa | 0 mm | - | 904 W/m² | - |
| 1777915559 | 20.56° C | 46% | 1011.3 hPa | 0 mm | - | 844 W/m² | - |
| 1777915256 | 20.56° C | 47% | 1011.5 hPa | 0 mm | - | 838 W/m² | - |
| 1777914952 | 20.56° C | 45% | 1011.6 hPa | 0 mm | - | 828 W/m² | - |
| 1777914649 | 21.11° C | 50% | 1011.5 hPa | 0 mm | - | 820 W/m² | - |
| 1777914345 | 20.56° C | 46% | 1011.7 hPa | 0 mm | - | 651 W/m² | - |
| 1777914043 | 21.11° C | 47% | 1011.9 hPa | 0 mm | - | 857 W/m² | - |
| 1777913738 | 20° C | 46% | 1011.7 hPa | 0 mm | - | 813 W/m² | - |
| 1777913436 | 20.56° C | 45% | 1011.8 hPa | 0 mm | - | 806 W/m² | - |
* Rain latest hour (hover to see other rain measurements)
** Current wind speed in m/s (hover to see current wind gust speed)